Theta_e
313 313 314 314 314 314 314 314 314 314 314 314 314 314 314 314 314 308 302 311 314 321 320 310 308 307 307 302 308 312 299 296 298 300 304 310 308 310 311 307 311 315 316 326 330
313 312 313 314 314 314 313 314 314 314 314 314 314 314 314 314 308 310 317 319 318 319 307 304 302 304 300 300 302 304 298 298 303 304 303 308 307 309 306 306 307 314 323 329 329
312 312 313 313 313 313 313 313 314 314 314 313 313 313 314 312 302 306 319 319 321 317 308 307 306 303 297 298 297 301 297 302 303 305 306 305 304 311 307 304 308 310 319 326 326
311 312 312 312 312 313 313 313 314 314 314 313 314 313 314 308 289 304 317 317 320 312 306 303 301 298 296 294 297 292 297 302 304 306 304 301 303 303 309 308 311 312 321 325 323
311 311 311 311 312 312 312 313 313 313 313 313 313 313 308 298 298 308 315 312 310 307 302 300 298 297 293 295 295 293 295 298 300 303 305 304 302 303 306 311 311 313 322 324 323
310 310 310 310 311 311 311 312 312 313 313 313 313 311 302 292 306 308 308 307 308 309 306 304 302 303 298 295 293 295 295 295 298 300 304 303 302 304 305 308 308 311 315 322 323
310 309 309 310 310 311 311 312 312 313 313 312 312 307 300 297 307 309 310 307 307 308 304 308 307 301 300 296 299 297 292 294 295 298 299 303 299 300 305 307 308 311 313 317 322
309 309 309 309 310 310 311 311 312 311 311 310 310 305 296 308 308 309 308 308 309 307 305 308 307 301 298 300 296 292 292 286 293 295 299 299 293 301 305 305 305 307 307 315 318
308 308 309 309 309 310 311 311 310 308 308 309 305 301 295 308 303 306 307 303 307 306 305 304 302 296 297 290 288 290 283 286 288 295 295 296 292 301 305 304 304 305 307 311 317
307 307 308 308 309 309 310 312 308 308 307 308 306 298 301 297 303 304 305 306 303 303 301 298 296 290 289 287 279 283 284 287 286 291 293 291 294 300 302 303 303 304 306 307 316
307 307 308 308 308 309 308 306 299 299 300 295 295 296 298 303 306 302 305 303 303 299 291 295 287 284 287 288 290 288 286 286 290 294 292 291 293 298 300 298 298 301 303 306 310
307 307 308 308 308 309 308 298 297 298 290 298 298 299 302 303 297 300 304 296 295 290 293 289 285 290 291 289 288 286 285 285 290 293 294 293 292 297 299 299 299 300 302 304 309
307 307 308 308 306 307 302 300 305 304 291 295 298 297 299 301 295 297 301 297 293 289 289 285 288 292 290 288 286 285 283 284 286 291 293 293 289 293 297 300 300 302 302 303 307
306 307 308 307 303 304 299 305 306 304 287 288 294 298 299 300 294 303 303 297 293 288 289 287 291 289 287 286 287 282 288 289 287 286 283 290 278 289 293 296 298 299 301 301 303
305 305 307 306 302 300 301 305 305 300 277 289 291 302 299 294 295 297 303 298 289 289 289 285 287 286 284 286 288 285 290 289 287 285 284 287 284 286 292 292 296 298 301 301 303
304 305 305 305 304 303 306 305 301 284 273 280 291 290 291 293 293 296 296 297 294 288 288 287 292 290 288 290 290 291 288 288 289 286 278 283 284 283 287 292 294 294 295 300 301
304 305 304 305 299 306 306 299 283 278 285 279 283 288 289 288 289 291 290 289 285 281 280 285 286 290 291 287 290 288 285 277 274 273 274 284 281 284 292 291 290 290 292 293 298
305 302 302 304 306 306 301 288 273 275 278 288 286 287 285 287 287 288 289 285 288 285 282 281 278 287 291 288 286 286 285 278 272 274 275 283 278 285 289 291 292 294 294 294 295
304 303 302 304 306 303 293 278 277 281 285 284 286 281 282 286 285 285 287 286 288 288 282 281 281 289 291 291 290 286 282 288 281 275 275 280 284 289 290 289 291 293 294 294 295
301 298 298 305 304 299 285 282 280 288 288 287 279 283 276 281 280 281 283 289 287 291 291 287 279 286 288 291 291 288 290 281 283 269 269 276 278 280 285 286 289 291 292 293 295
299 291 299 305 301 288 280 280 281 287 288 286 282 281 282 281 282 279 282 287 289 289 291 289 285 282 286 284 285 284 282 285 284 281 275 274 275 284 285 287 288 291 293 293 294
296 282 299 303 286 283 281 278 285 286 290 288 287 285 283 284 281 282 282 285 290 290 286 290 285 279 281 288 289 289 286 286 278 278 279 278 277 288 287 289 292 292 293 292 293
285 287 299 299 280 280 279 278 284 284 285 286 285 287 287 283 277 284 285 290 289 289 285 289 284 276 278 282 285 283 287 288 286 283 279 277 277 288 288 289 291 290 290 291 291
286 280 288 291 289 284 279 278 277 287 285 286 286 287 284 281 285 282 283 288 289 290 292 290 284 283 277 280 285 281 284 286 285 278 279 280 282 286 286 287 290 289 290 290 291
285 284 285 278 280 284 284 282 280 277 285 287 282 284 283 276 279 279 284 284 287 291 288 286 278 282 283 285 286 284 284 284 282 284 279 282 283 288 285 285 289 290 291 291 291
283 282 285 283 284 283 285 278 281 282 282 281 276 284 284 278 281 279 282 282 281 286 285 285 276 280 275 283 283 281 284 285 285 284 283 284 283 289 287 287 288 291 291 290 291
293 293 289 284 283 282 281 283 282 284 285 287 285 283 281 284 287 287 288 287 286 283 280 282 276 270 268 280 279 271 279 281 282 285 285 280 285 286 286 289 290 290 290 291 291
Wind_Speed
7 8 8 8 8 10 11 12 12 13 14 15 16 17 19 20 21 7 9 5 10 18 19 12 12 9 6 6 7 6 4 10 14 15 13 9 6 5 4 3 2 4 7 12 18
7 9 9 9 10 10 11 12 13 13 14 15 17 19 21 21 15 14 8 11 13 20 15 14 14 12 6 8 6 7 6 13 12 11 9 7 7 4 3 4 4 7 10 13 15
8 9 11 10 10 11 11 12 12 13 14 15 16 19 22 19 3 9 5 8 16 18 14 13 10 9 6 9 9 8 16 10 15 13 11 5 7 3 5 8 7 10 15 14 13
8 9 9 9 10 11 12 12 12 13 13 14 16 18 23 9 1 7 11 12 16 15 12 11 11 9 8 9 10 16 17 14 13 17 6 3 4 11 8 9 1 7 21 17 15
8 8 9 10 11 11 12 13 13 13 12 13 14 15 11 5 6 8 11 14 12 10 10 11 11 10 7 10 16 17 14 16 15 17 15 7 9 8 10 9 7 7 13 15 13
7 8 9 10 11 12 13 14 14 13 13 13 13 12 5 4 2 13 11 9 10 11 10 6 6 10 8 10 9 14 20 18 19 19 15 16 7 7 7 5 4 4 7 13 14
6 7 9 10 11 13 13 14 13 13 14 12 8 5 3 5 9 9 8 5 5 8 8 8 8 7 11 10 9 13 15 17 16 19 19 13 15 22 13 11 5 8 6 8 13
6 7 9 9 11 13 14 14 14 11 7 5 2 0 3 3 5 6 11 8 4 7 11 9 8 9 8 9 13 16 16 15 7 17 20 11 24 12 15 16 13 10 7 8 9
6 7 9 11 12 14 16 15 8 4 1 1 3 3 4 2 6 10 6 9 8 5 5 10 8 9 7 9 10 9 13 17 19 16 17 15 27 15 18 16 15 10 12 8 8
5 7 9 11 13 15 16 12 3 3 6 3 1 3 1 8 13 11 9 7 4 7 7 4 4 5 6 7 8 12 14 15 16 16 15 22 22 16 14 17 18 14 10 10 12
4 6 8 10 14 14 10 3 2 3 5 4 4 4 4 13 6 4 4 5 3 4 3 3 4 8 11 12 13 18 22 21 17 21 15 20 18 13 13 5 6 7 8 9 11
4 6 8 11 11 10 6 6 4 1 4 1 3 4 6 4 5 8 5 4 4 7 7 2 9 13 13 14 14 16 16 19 18 23 11 15 10 14 13 8 8 8 9 7 11
4 7 9 11 3 3 10 8 5 0 2 1 1 3 4 5 5 7 6 7 7 8 9 7 9 10 12 11 14 17 15 14 15 23 6 9 10 9 9 10 9 7 4 4 9
3 6 9 10 2 1 4 4 3 1 3 3 2 3 3 3 2 8 8 5 4 5 9 7 6 7 9 15 13 18 15 11 13 14 6 9 5 11 10 8 6 7 7 6 4
2 5 7 7 1 1 5 4 2 2 2 6 3 1 4 5 7 4 6 3 4 8 2 3 6 5 7 8 9 11 12 14 14 15 6 4 6 8 16 17 12 10 9 7 6
2 4 8 3 2 6 3 3 1 2 2 4 3 5 8 5 3 4 2 4 2 3 5 16 7 5 5 9 11 8 11 12 15 13 5 10 8 7 3 9 6 7 7 4 4
2 3 4 2 3 4 2 3 1 3 3 5 3 5 8 8 4 9 4 6 5 7 5 3 2 4 5 7 4 2 4 2 2 1 6 4 2 9 5 7 7 7 7 7 7
3 1 0 4 2 3 2 1 1 1 1 2 4 7 4 7 5 8 6 6 4 4 5 7 3 4 6 3 6 9 6 2 4 1 3 1 3 5 6 8 8 8 6 6 7
3 2 2 3 3 1 0 1 2 3 5 1 1 3 4 4 5 5 5 6 5 4 5 5 3 3 3 4 4 8 2 1 3 4 2 5 6 2 6 8 6 6 7 6 6
2 2 3 2 2 1 3 1 1 2 3 2 2 1 0 4 4 5 6 2 6 2 0 2 6 0 4 4 6 7 9 4 3 4 4 4 4 5 10 6 5 5 6 6 6
2 1 2 0 1 6 1 2 2 2 1 1 2 1 1 3 4 2 2 3 8 8 4 4 4 1 2 3 2 2 5 3 3 1 3 5 2 4 6 6 5 7 6 6 6
3 2 2 2 3 2 2 1 3 2 1 1 1 1 2 4 2 2 4 3 8 9 6 4 4 5 4 5 2 2 5 5 1 5 5 1 4 6 5 6 8 7 7 6 6
5 2 1 3 3 3 2 0 2 1 3 2 2 1 4 2 3 4 4 5 8 7 7 7 3 6 1 3 2 4 4 9 5 3 3 2 4 3 4 6 6 8 6 6 7
4 4 0 1 1 4 4 2 2 2 2 1 3 1 2 3 4 2 5 4 7 4 2 5 3 3 5 10 9 5 10 8 5 2 5 4 10 9 7 5 6 6 7 7 7
1 2 1 5 4 3 4 8 5 4 2 1 2 4 1 1 4 2 4 7 6 6 7 3 4 7 11 9 5 6 10 9 7 6 5 4 2 10 5 2 4 6 6 7 7
5 4 2 2 6 5 6 4 6 5 6 3 2 3 2 3 3 4 7 3 3 4 5 4 3 6 6 5 7 7 8 9 8 7 7 8 7 4 3 2 4 7 6 6 7
1 1 1 7 7 4 4 6 7 6 5 1 5 2 3 4 4 5 5 7 7 5 2 3 4 4 7 6 8 5 3 5 7 8 7 6 6 2 2 3 5 6 5 5 6
Wind_Direction
26 22 13 12 12 11 9 5 3 1 359 352 346 340 338 333 319 307 33 41 23 350 319 351 342 328 273 254 255 295 262 247 244 245 261 275 269 306 53 301 5 87 46 108 122
21 19 15 9 4 3 4 3 360 358 356 351 341 342 337 331 311 51 47 45 12 344 351 355 350 332 309 277 231 207 225 238 258 264 264 242 285 316 288 234 212 101 89 113 130
20 10 9 6 360 353 352 355 354 353 354 348 341 340 331 319 289 41 58 10 349 340 337 320 316 324 285 279 266 224 241 276 276 269 282 256 299 268 280 283 234 184 150 146 155
21 16 8 4 355 349 346 344 346 347 349 343 336 340 322 292 112 39 355 334 330 322 330 332 338 320 308 310 296 263 274 267 272 281 282 262 298 274 224 250 64 27 155 150 170
25 16 7 3 357 349 344 343 342 342 339 331 334 342 330 347 52 20 3 354 330 331 326 319 320 326 310 328 324 301 289 285 279 269 276 241 245 265 257 218 301 99 143 154 166
20 8 3 354 350 343 338 340 339 333 324 322 326 332 337 22 317 356 351 340 343 338 330 318 345 333 293 281 277 312 304 302 302 301 269 262 254 267 259 249 261 178 178 162 174
11 0 355 347 342 336 334 333 329 323 317 318 319 314 297 297 347 354 328 327 295 294 313 3 359 328 332 311 287 316 302 298 280 288 275 269 256 235 250 278 199 155 238 188 179
8 355 348 346 339 330 328 331 323 313 323 337 316 121 317 3 350 329 346 336 327 262 261 280 288 301 273 266 289 289 278 280 287 250 269 259 253 246 230 243 229 184 226 188 190
19 358 349 345 338 330 327 325 322 335 262 232 162 301 64 208 335 336 324 317 307 265 265 256 265 256 286 285 290 247 265 267 279 255 255 228 258 254 266 229 221 222 200 195 170
18 3 352 343 337 330 325 306 275 254 226 203 105 249 284 342 340 313 278 265 309 309 254 230 241 243 267 255 261 277 278 280 290 262 247 248 242 238 282 226 215 222 206 194 159
11 357 346 341 334 328 328 132 293 162 27 10 341 306 320 338 300 339 358 284 238 248 289 301 266 263 271 267 292 314 302 291 293 294 295 248 239 221 234 245 257 224 215 182 165
360 352 349 338 326 314 305 65 61 20 317 303 294 289 284 351 304 53 332 323 328 317 316 313 272 277 293 292 281 272 287 286 291 277 346 305 256 212 235 200 198 223 261 189 154
5 356 351 338 309 351 68 62 16 47 265 258 32 315 350 322 349 337 356 326 319 323 321 279 263 280 291 284 282 273 270 272 278 298 299 276 297 280 255 227 190 205 243 317 179
17 10 352 332 250 63 69 47 1 241 103 3 154 125 261 260 288 35 11 5 328 323 334 290 326 329 309 273 265 282 285 254 266 282 270 8 272 228 252 262 221 194 207 256 302
51 15 345 348 14 53 58 1 67 237 130 354 34 359 257 50 309 58 19 33 296 301 322 309 345 339 294 275 321 271 300 277 263 279 327 213 258 241 205 221 219 211 190 201 207
105 4 318 225 138 63 13 339 206 228 113 329 315 355 348 72 45 322 295 82 100 297 249 268 279 270 252 284 264 267 299 259 249 236 277 249 246 280 157 181 200 94 59 114 135
127 23 315 284 63 10 337 214 291 55 243 329 336 337 312 24 5 5 329 24 9 334 351 267 214 245 239 277 105 148 283 307 333 31 229 2 262 255 90 69 83 78 65 49 81
127 273 266 59 21 14 243 290 90 263 121 40 317 302 60 26 342 349 350 8 80 346 297 331 329 353 341 320 310 290 261 295 277 224 247 342 236 254 74 66 80 69 75 76 76
162 165 216 61 53 347 279 281 86 150 135 44 242 45 11 1 19 344 28 17 26 347 347 321 331 312 343 322 338 334 221 357 300 223 337 193 243 121 68 60 60 71 78 77 81
213 191 101 348 57 167 69 178 245 59 143 181 80 143 307 356 37 28 7 55 9 16 179 300 290 111 301 309 253 232 328 341 232 332 314 336 48 38 16 40 70 79 77 78 88
205 179 111 344 239 57 251 181 259 151 269 227 132 191 338 8 348 177 306 264 29 348 341 269 265 339 216 209 330 296 276 274 292 349 330 329 39 357 342 354 94 78 89 97 91
113 127 111 262 67 96 172 102 295 163 163 274 307 267 289 350 343 299 16 58 20 356 355 315 301 294 306 130 160 216 294 311 297 331 349 194 291 339 12 2 85 81 69 64 83
118 156 180 269 154 158 156 230 297 197 211 192 229 266 12 304 344 313 18 36 26 26 12 344 319 308 92 113 199 277 262 254 290 290 267 349 305 32 59 56 83 97 91 81 73
127 131 85 323 191 139 152 163 163 221 321 5 328 335 263 272 223 271 315 19 343 59 325 336 309 317 333 312 297 313 331 325 257 311 298 259 317 346 26 56 90 101 107 105 104
64 187 194 163 203 198 155 156 143 159 246 178 315 274 208 347 317 283 22 352 327 55 0 68 306 336 304 311 343 320 300 303 303 264 230 271 296 305 33 80 128 131 114 99 104
147 151 263 92 134 156 170 223 162 132 145 202 159 176 210 167 284 314 328 318 274 4 12 10 298 319 287 263 323 280 286 304 301 281 289 294 288 259 55 71 121 130 131 130 117
255 326 200 138 150 149 183 167 192 139 208 118 192 196 250 278 334 324 299 284 279 301 326 338 353 344 277 335 322 21 337 327 333 325 335 311 291 312 182 169 149 127 138 124 116